ETH700 HAAB-EGLL

Flight info

Callsign ETH700
Flight time N/A
Altitude 38000
Route LABLA1B LABLA T124 ALRAP/N0496F370 DCT KSL/N0493F380 DCT TOMRU P751 KUNKI/N0494F400 P751 METRU DCT OLGAT DCT BAXON DCT RESIA DCT ELMUR DCT RIPUS L613 HOC DCT LUL DCT RLP DCT ROTSI DCT KOTUN DCT NINAL DCT ABNUR DCT DIMAL DCT ALESO
Aircraft A359/H-SDE2E3GHIJ3J4J5LM1ORWXY/LB1D1

Departure

Time 2026-04-28 21:49
Airport Addis Ababa Bole International Airport (HAAB)

Arrival

Time N/A
Airport London Heathrow Airport (EGLL)
Time Latitude Longitude Altitude Speed Heading
2026-04-28 20:44 8.98237 38.79670 7620 ft 0 kts 344°
2026-04-28 21:33 8.98224 38.79674 7625 ft 3 kts 339°
2026-04-28 21:33 8.98202 38.79683 7625 ft 3 kts 341°
2026-04-28 21:33 8.98186 38.79688 7624 ft 3 kts 15°
2026-04-28 21:33 8.98167 38.79682 7628 ft 3 kts 35°
2026-04-28 21:34 8.98154 38.79669 7625 ft 3 kts 68°
2026-04-28 21:34 8.98148 38.79647 7625 ft 3 kts 75°
2026-04-28 21:34 8.98145 38.79636 7625 ft 1 kts 73°
2026-04-28 21:34 8.98144 38.79636 7625 ft 0 kts 73°
2026-04-28 21:39 8.98146 38.79640 7620 ft 3 kts 72°
2026-04-28 21:40 8.98159 38.79677 7620 ft 8 kts 73°
2026-04-28 21:40 8.98163 38.79733 7622 ft 4 kts 120°
2026-04-28 21:40 8.98147 38.79744 7622 ft 4 kts 150°
2026-04-28 21:40 8.98114 38.79761 7620 ft 6 kts 153°
2026-04-28 21:41 8.98073 38.79777 7620 ft 7 kts 170°
2026-04-28 21:41 8.98016 38.79790 7621 ft 9 kts 166°
2026-04-28 21:41 8.97956 38.79805 7621 ft 9 kts 166°
2026-04-28 21:41 8.97899 38.79822 7622 ft 8 kts 161°
2026-04-28 21:42 8.97870 38.79856 7621 ft 5 kts 94°
2026-04-28 21:42 8.97884 38.79903 7622 ft 11 kts 72°
2026-04-28 21:42 8.97916 38.80006 7621 ft 20 kts 73°
2026-04-28 21:42 8.97961 38.80157 7622 ft 23 kts 73°
2026-04-28 21:43 8.98006 38.80308 7622 ft 22 kts 73°
2026-04-28 21:43 8.98050 38.80456 7619 ft 22 kts 73°
2026-04-28 21:43 8.98092 38.80602 7618 ft 21 kts 74°
2026-04-28 21:43 8.98132 38.80745 7616 ft 21 kts 74°
2026-04-28 21:44 8.98173 38.80887 7615 ft 20 kts 74°
2026-04-28 21:44 8.98211 38.81020 7616 ft 19 kts 72°
2026-04-28 21:44 8.98251 38.81143 7615 ft 18 kts 72°
2026-04-28 21:44 8.98283 38.81265 7614 ft 16 kts 75°
2026-04-28 21:45 8.98308 38.81356 7614 ft 12 kts 73°
2026-04-28 21:45 8.98321 38.81431 7614 ft 9 kts 111°
2026-04-28 21:45 8.98300 38.81479 7615 ft 7 kts 114°
2026-04-28 21:45 8.98298 38.81484 7615 ft 0 kts 113°
2026-04-28 21:47 8.98286 38.81511 7614 ft 8 kts 113°
2026-04-28 21:47 8.98251 38.81574 7617 ft 12 kts 124°
2026-04-28 21:47 8.98204 38.81624 7617 ft 5 kts 159°
2026-04-28 21:48 8.98194 38.81618 7617 ft 1 kts 216°
2026-04-28 21:48 8.98187 38.81603 7617 ft 4 kts 248°
2026-04-28 21:48 8.98171 38.81549 7617 ft 19 kts 252°
2026-04-28 21:48 8.98065 38.81198 7616 ft 85 kts 253°
2026-04-28 21:49 8.97843 38.80436 7622 ft 142 kts 253°
2026-04-28 21:49 8.97504 38.79297 7713 ft 183 kts 254°
2026-04-28 21:49 8.97152 38.78118 8387 ft 172 kts 253°
2026-04-28 21:49 8.96453 38.77112 8687 ft 188 kts 213°
2026-04-28 21:50 8.95164 38.76893 8900 ft 198 kts 162°
2026-04-28 21:50 8.94100 38.77766 9168 ft 202 kts 113°
2026-04-28 21:50 8.93912 38.79198 9381 ft 214 kts 84°
2026-04-28 21:50 8.94258 38.80621 9944 ft 210 kts 60°
2026-04-28 21:51 8.95312 38.81601 10383 ft 212 kts 22°
2026-04-28 21:51 8.96728 38.82074 10807 ft 216 kts 20°
2026-04-28 21:51 8.97928 38.83013 11211 ft 220 kts 58°
2026-04-28 21:51 8.98454 38.84448 11628 ft 224 kts 73°
2026-04-28 21:52 8.98667 38.86013 12098 ft 229 kts 92°
2026-04-28 21:52 8.98103 38.87504 12494 ft 231 kts 126°
2026-04-28 21:52 8.96801 38.88452 12788 ft 236 kts 159°
2026-04-28 21:52 8.95213 38.88887 13138 ft 238 kts 165°
2026-04-28 21:53 8.93581 38.89254 13442 ft 241 kts 167°
2026-04-28 21:53 8.91889 38.89212 13602 ft 252 kts 196°
2026-04-28 21:53 8.90436 38.88207 13709 ft 262 kts 232°
2026-04-28 21:53 8.89781 38.86494 13842 ft 268 kts 267°
2026-04-28 21:54 8.90184 38.84652 13935 ft 275 kts 302°
2026-04-28 21:54 8.91542 38.83280 14041 ft 283 kts 332°
2026-04-28 21:54 8.93303 38.82319 14251 ft 292 kts 333°
2026-04-28 21:54 8.95119 38.81305 14445 ft 303 kts 331°
2026-04-28 21:55 8.96953 38.80201 14667 ft 313 kts 329°
2026-04-28 21:55 8.98721 38.78859 14886 ft 324 kts 321°
2026-04-28 21:55 9.00456 38.77347 15077 ft 333 kts 320°
2026-04-28 21:55 9.02202 38.75804 15303 ft 342 kts 320°
2026-04-28 21:56 9.04018 38.74201 15509 ft 351 kts 320°
2026-04-28 21:56 9.05888 38.72550 15714 ft 360 kts 320°
2026-04-28 21:56 9.07796 38.70867 15918 ft 368 kts 320°
2026-04-28 21:56 9.09742 38.69149 16119 ft 376 kts 320°
2026-04-28 21:57 9.11737 38.67388 16320 ft 383 kts 320°
2026-04-28 21:57 9.13766 38.65594 16497 ft 391 kts 320°
2026-04-28 21:57 9.15832 38.63769 16662 ft 398 kts 320°
2026-04-28 21:57 9.17932 38.61914 16834 ft 405 kts 320°
2026-04-28 21:58 9.20071 38.60022 17002 ft 411 kts 319°
2026-04-28 21:58 9.22238 38.58107 17249 ft 415 kts 319°
2026-04-28 21:58 9.24420 38.56182 17517 ft 418 kts 320°
2026-04-28 21:58 9.26726 38.54454 17772 ft 419 kts 330°
2026-04-28 21:59 9.29433 38.53246 18077 ft 420 kts 341°
2026-04-28 21:59 9.32174 38.52278 18345 ft 423 kts 342°
2026-04-28 21:59 9.34976 38.51300 18591 ft 425 kts 341°